Regional Weather Roundup
Issued by NWS Cleveland, OH

Home | Current Version | Previous Version | Text Only | Print | Product List | Glossary Off
Versions: 1 2 3 4 5 6 7 8 9 10 11 12 13 14 15 16 17 18 19 20 21 22 23 24 25 26 27 28 29 30 31 32 33 34 35 36 37 38 39 40 41 42 43 44 45 46 47 48 49 50

000
ASUS41 KCLE 050912
RWRCLE
OHIO REGIONAL WEATHER ROUNDUP
NATIONAL WEATHER SERVICE WILMINGTON, OH
500 AM EDT THU MAY 05 2016

NOTE: "FAIR" INDICATES FEW OR NO CLOUDS BELOW 12,000 FEET WITH NO
SIGNIFICANT WEATHER AND/OR OBSTRUCTIONS TO VISIBILITY.

OHZ001>008-015>018-024>027-034-035-043-044-051000-
   NORTHWEST OHIO

CITY           SKY/WX    TMP DP  RH WIND       PRES   REMARKS
DEFIANCE       LGT RAIN  44  40  85 NW6       29.75S
FINDLAY        LGT RAIN  43  38  82 NW7       29.73R
TOLEDO EXPRESS CLOUDY    44  43  96 W3        29.74R
TOLEDO EXEC    CLOUDY    46  44  93 W5        29.74R
LIMA           CLOUDY    41  39  93 N7        29.74R
$$

OHZ009>014-019>023-028>033-038-089-051000-
   NORTHEAST OHIO

CITY           SKY/WX    TMP DP  RH WIND       PRES   REMARKS
CLE-HOPKINS    CLOUDY    49  47  93 NW5       29.71S
CLE-LAKEFRONT  CLOUDY    50  43  77 N8        29.69R
CUY CO. ARPT   NOT AVBL
LORAIN-ELYRIA  CLOUDY    48  45  89 N7        29.70S
ASHTABULA      CLOUDY    47  44  90 CALM      29.68S
AKRON-CANTON   CLOUDY    49  46  90 N6        29.68R FOG
WOOSTER        LGT RAIN  45  44  97 N6        29.69R
MANSFIELD      CLOUDY    43  42  97 NW6       29.69S
YOUNGSTOWN     LGT RAIN  47  45  93 SW3       29.66S
$$

OHZ042-051>053-060>062-070>072-077>081-051000-
  SOUTHWEST OHIO

CITY           SKY/WX    TMP DP  RH WIND       PRES   REMARKS
CINC-COVINGTON LGT RAIN  42  40  92 N6        29.72R
CINC-LUNKEN    CLOUDY    42  40  92 N8        29.74R
HAMILTON       CLOUDY    43  39  86 N3        29.74R
DAYTON         CLOUDY    39  37  92 N6        29.74R
WRIGHT-PAT AFB PTCLDY    41  39  94 N10       29.72R
DAYTON GENERAL FAIR      38  34  85 N3        29.72R
WILMINGTON     CLOUDY    42  36  79 N3        29.71R
$$

OHZ036-037-039>041-045>050-054>059-063>069-073>076-082>088-051000-
  CENTRAL AND SOUTHEAST OHIO

CITY           SKY/WX    TMP DP  RH WIND       PRES   REMARKS
COLUMBUS       FAIR      39  36  89 N3        29.71R
OSU AIRPORT    CLOUDY    40  36  86 N8        29.72R
BOLTON FIELD   CLOUDY    41  37  88 CALM      29.72R
RICKENBACK AFB FAIR      40  35  82 CALM      29.71R
NEWARK         MOCLDY    41  36  82 CALM      29.70R
MARION         LGT RAIN  43  41  93 NW5       29.72R
LANCASTER      FAIR      37  35  92 N3        29.71R
ZANESVILLE     CLOUDY    46  41  82 W3        29.69R
NEW PHILLY     LGT RAIN  48  46  93 NW3       29.68S
$$




USA.gov is the U.S. government's official web portal to all federal, state and local government web resources and services.